Notices

What's New in latest Release from April 7th, 2021:

- Updated Glossary, including Speed of Maximum Gust, and Total Hourly Precipitation

- Updated national and regional climate services offices contacts and prices information

- Addition of station inventory lists for 1981-2010, 1971-2000, and 1961-1990 Normals.

If you haven't already, please take our survey and provide feedback about our website: https://eccc.sondage-survey.ca/f/LanguageSelection.aspx?s=442ca660-fcf1-47c0-95a9-59707d6fd709

Hourly Data Report for September 20, 2017

TORONTO CITY
ONTARIO

43°40'00.000" N
79°24'00.000" W
112.50 m
6158355
71508
XTO

Download Data

Hourly Data (September 2017)
Hourly Data Report for September 20, 2017
TIME
LST
Temp Definition
°C
Dew Point Definition
°C
Rel Hum Definition
%
Precip. Amount Definition
mm

Wind Dir Definition
10's deg

Wind Spd Definition
km/h
Visibility Definition
km
Stn Press Definition
kPa
Hmdx Definition


Wind Chill Definition


Weather Definition


00:00 21.3 17.0 77 0.0 LegendMM LegendMM   100.25 27   LegendNANA
01:00 20.8 16.8 78 0.0 LegendMM LegendMM   100.25 26   LegendNANA
02:00 20.6 16.7 78 0.0 LegendMM LegendMM   100.24 26   LegendNANA
03:00 19.6 16.4 82 0.0 LegendMM LegendMM   100.25     LegendNANA
04:00 19.5 16.0 80 0.0 LegendMM LegendMM   100.26     LegendNANA
05:00 19.4 16.8 85 0.0 LegendMM LegendMM   100.28     LegendNANA
06:00 19.9 17.8 87 0.0 LegendMM LegendMM   100.31     LegendNANA
07:00 20.0 17.7 86 0.0 LegendMM LegendMM   100.36 26   LegendNANA
08:00 20.9 17.8 82 0.0 LegendMM LegendMM   100.42 27   LegendNANA
09:00 21.6 17.7 78 0.0 LegendMM LegendMM   100.44 27   LegendNANA
10:00 22.9 17.7 73 0.0 LegendMM LegendMM   100.41 29   LegendNANA
11:00 23.9 17.6 68 0.0 LegendMM LegendMM   100.42 30   LegendNANA
12:00 23.9 17.9 69 0.0 LegendMM LegendMM   100.40 30   LegendNANA
13:00 24.2 17.9 68 0.0 LegendMM LegendMM   100.38 30   LegendNANA
14:00 23.4 17.7 70 0.0 LegendMM LegendMM   100.31 29   LegendNANA
15:00 22.8 18.0 74 0.0 LegendMM LegendMM   100.29 29   LegendNANA
16:00 23.5 17.0 67 0.0 LegendMM LegendMM   100.30 29   LegendNANA
17:00 23.5 16.4 64 0.0 LegendMM LegendMM   100.32 28   LegendNANA
18:00 23.5 15.5 61 0.0 LegendMM LegendMM   100.32 28   LegendNANA
19:00 23.1 13.7 56 0.0 LegendMM LegendMM   100.35 26   LegendNANA
20:00 22.1 13.7 59 0.0 LegendMM LegendMM   100.36 25   LegendNANA
21:00 22.3 13.6 58 0.0 LegendMM LegendMM   100.34 25   LegendNANA
22:00 21.7 14.7 64 0.0 LegendMM LegendMM   100.38 25   LegendNANA
23:00 20.5 14.4 68 0.0 LegendMM LegendMM   100.39     LegendNANA

Notes on Data Quality.

Legend

  • E = Estimated
  • M = Missing
  • NA = Not Available*
  • [empty] = Indicates an unobserved value
Date modified: